Weather History for Cheyenne, WY

Change the Weather History Date:

Thursday, February 14, 2013

  Actual Average Record
Temperature  
Mean Temperature 24 °F 29 °F  
Max Temperature 31 °F 40 °F 64 °F (1924)
Min Temperature 16 °F 18 °F -20 °F (1895)
Degree Days  
Heating Degree Days 41 36  
Month to date heating degree days 507 512  
Since 1 July heating degree days 4358 4539  
Cooling Degree Days 0 0  
Month to date cooling degree days 0 0  
Year to date cooling degree days 0 0  
Moisture  
Dew Point 13 °F    
Average Humidity 65    
Maximum Humidity 80    
Minimum Humidity 49    
Precipitation  
Precipitation 0.01 in 0.02 in 0.53 in (1885)
Month to date precipitation 0.20 0.20  
Year to date precipitation 0.44 0.53  
Snow  
Snow 0.20 in 0.30 in 5.30 in (1885)
Month to date snowfall 3.2 3.7  
Since 1 July snowfall 32.0 32.3  
Snow Depth T in    
Sea Level Pressure  
Sea Level Pressure 30.20 in    
Wind  
Wind Speed 12 mph (North)    
Max Wind Speed 32 mph    
Max Gust Speed 41 mph    
Visibility 7 miles    
Events Fog , Snow    
T = Trace of Precipitation, MM = Missing Value Source: NWS Daily Summary

Daily Weather History Graph

Daily Weather History Graph

Search for Another Location

Airport:

Trip Planner

Search our weather history database for the weather conditions in past years. The results will help you decide how hot, cold, wet, or windy it might be!

Date:

Astronomy

Feb. 14, 2013 Rise Set
Actual Time 6:54 AM MST 5:32 PM MST
Civil Twilight 6:26 AM MST 6:00 PM MST
Nautical Twilight 5:54 AM MST 6:33 PM MST
Astronomical Twilight 5:22 AM MST 7:05 PM MST
Moon 8:54 AM MST (2/14) 10:41 PM MST (2/14)
Length of Visible Light 11h 34m
Length of Day
10h 37m
Waxing Crescent, 22% of the Moon is Illuminated
Feb 14
Waxing Crescent
Feb 17
First Quarter
Feb 25
Full
Mar 4
Last Quarter
Mar 11
New

Hourly Weather History & Observations

Time (MST) Temp. Windchill Dew Point Humidity Pressure Visibility Wind Dir Wind Speed Gust Speed Precip Events Conditions
12:53 AM 26.1 °F 21.9 °F 15.1 °F 63% 30.03 in 10.0 mi WSW 3.5 mph - N/A   Clear
1:53 AM 27.0 °F 18.7 °F 17.1 °F 66% 30.01 in 10.0 mi West 8.1 mph - N/A   Clear
2:53 AM 26.1 °F - 16.0 °F 66% 30.03 in 10.0 mi Calm Calm - N/A   Scattered Clouds
3:53 AM 27.0 °F - 16.0 °F 63% 30.02 in 10.0 mi Calm Calm - N/A   Scattered Clouds
4:53 AM 30.0 °F 20.0 °F 14.0 °F 51% 30.03 in 10.0 mi WNW 12.7 mph 17.3 mph N/A   Scattered Clouds
5:53 AM 30.9 °F 24.3 °F 14.0 °F 50% 30.04 in 10.0 mi NW 6.9 mph - N/A   Overcast
6:53 AM 30.9 °F 20.7 °F 16.0 °F 54% 30.08 in 10.0 mi NW 13.8 mph 28.8 mph N/A   Overcast
7:53 AM 28.0 °F 16.5 °F 19.0 °F 69% 30.13 in 10.0 mi NNW 15.0 mph 21.9 mph N/A   Overcast
8:02 AM 28.4 °F 15.8 °F 19.4 °F 69% 30.06 in 2.0 mi NNW 18.4 mph 26.5 mph N/A   Overcast
8:07 AM 24.8 °F 7.9 °F 17.6 °F 74% 30.07 in 0.5 mi North 29.9 mph 41.4 mph 0.00 in Snow Snow
8:16 AM 19.4 °F 5.0 °F 15.8 °F 86% 30.08 in 0.2 mi NNE 16.1 mph 41.4 mph 0.00 in Fog , Snow Light Snow
8:24 AM 19.4 °F 5.0 °F 15.8 °F 86% 30.09 in 0.5 mi North 16.1 mph 25.3 mph 0.00 in Fog , Snow Light Snow
8:35 AM 19.4 °F 3.2 °F 15.8 °F 86% 30.08 in 1.2 mi North 20.7 mph 29.9 mph 0.00 in Snow Light Snow
8:53 AM 19.9 °F 3.5 °F 15.1 °F 81% 30.22 in 1.2 mi North 21.9 mph 31.1 mph 0.00 in Snow Light Snow
9:11 AM 19.4 °F 2.5 °F 14.0 °F 80% 30.10 in 2.5 mi North 23.0 mph 33.4 mph 0.00 in Snow Light Snow
9:25 AM 21.2 °F 3.9 °F 14.0 °F 74% 30.11 in 3.0 mi North 26.5 mph 34.5 mph 0.00 in Snow Light Snow
9:53 AM 21.0 °F 4.3 °F 14.0 °F 74% 30.26 in 2.0 mi North 24.2 mph 33.4 mph 0.00 in Snow Light Snow
10:25 AM 19.4 °F 2.8 °F 14.0 °F 80% 30.14 in 1.2 mi North 21.9 mph 36.8 mph 0.00 in Snow Light Snow
10:41 AM 19.4 °F 1.8 °F 12.2 °F 74% 30.14 in 2.0 mi North 25.3 mph 36.8 mph 0.00 in Snow Light Snow
10:53 AM 19.9 °F 2.2 °F 12.9 °F 74% 30.28 in 3.0 mi North 26.5 mph 35.7 mph 0.00 in Snow Light Snow
11:24 AM 21.2 °F 5.6 °F 12.2 °F 68% 30.15 in 10.0 mi North 20.7 mph 36.8 mph 0.00 in   Mostly Cloudy
11:41 AM 21.2 °F 4.5 °F 12.2 °F 68% 30.15 in 9.0 mi North 24.2 mph 35.7 mph 0.00 in   Mostly Cloudy
11:53 AM 21.9 °F 4.2 °F 12.9 °F 68% 30.30 in 7.0 mi North 28.8 mph 36.8 mph 0.00 in   Overcast
12:43 PM 21.2 °F 4.9 °F 14.0 °F 74% 30.15 in 2.0 mi North 23.0 mph 36.8 mph 0.00 in Snow Light Snow
12:53 PM 21.9 °F 5.8 °F 10.9 °F 63% 30.30 in 7.0 mi North 23.0 mph 34.5 mph 0.00 in Snow Light Snow
1:53 PM 23.0 °F 6.9 °F 8.1 °F 53% 30.28 in 10.0 mi North 24.2 mph 35.7 mph 0.00 in   Overcast
2:53 PM 23.0 °F 9.2 °F 10.9 °F 60% 30.30 in 10.0 mi North 17.3 mph 32.2 mph N/A   Overcast
3:53 PM 23.0 °F 9.2 °F 10.9 °F 60% 30.31 in 10.0 mi NNW 17.3 mph 24.2 mph N/A   Partly Cloudy
4:53 PM 21.0 °F 10.6 °F 10.9 °F 65% 30.31 in 10.0 mi North 9.2 mph - N/A   Clear
5:53 PM 19.0 °F 10.0 °F 12.0 °F 74% 30.32 in 10.0 mi North 6.9 mph - N/A   Mostly Cloudy
6:53 PM 18.0 °F 12.7 °F 12.0 °F 78% 30.34 in 10.0 mi North 3.5 mph - N/A   Overcast
7:53 PM 18.0 °F 12.7 °F 12.0 °F 78% 30.35 in 10.0 mi NW 3.5 mph - N/A   Overcast
8:53 PM 18.0 °F 12.7 °F 10.9 °F 74% 30.39 in 10.0 mi East 3.5 mph - N/A   Overcast
9:53 PM 19.0 °F - 10.9 °F 71% 30.38 in 10.0 mi Calm Calm - N/A   Mostly Cloudy
10:53 PM 19.0 °F - 10.9 °F 71% 30.39 in 10.0 mi Calm Calm - N/A   Overcast
11:53 PM 16.0 °F 6.3 °F 10.0 °F 77% 30.40 in 10.0 mi North 6.9 mph - 0.00 in   Overcast